Theta_e
321 315 317 317 316 314 316 311 314 315 315 313 312 325 329 330 337 335 336 340 337 335 336 334 334 331 329 327 327 333 337 338 332 327 327 327 328 328 326 325 321 325 326 324 328 333 331 334 335
318 316 317 311 317 316 310 313 314 314 315 316 317 327 325 324 339 337 338 338 337 334 335 334 333 331 328 326 325 325 325 326 326 326 327 328 329 326 323 320 322 326 324 325 331 334 334 335 336
317 319 313 314 315 314 311 312 314 317 316 317 319 337 335 335 340 336 338 338 338 334 334 334 333 330 327 327 326 326 325 325 326 328 329 330 328 324 320 319 323 325 323 325 330 331 333 335 334
320 317 314 319 317 314 313 316 315 316 317 317 331 339 340 341 340 337 338 338 339 335 334 332 331 331 328 328 328 328 326 326 326 328 329 329 326 323 319 319 322 324 323 324 326 329 332 333 333
316 313 318 320 320 318 314 314 316 317 317 317 319 326 344 343 341 340 337 339 340 337 334 331 331 330 329 329 330 329 327 326 327 327 328 327 325 323 320 320 321 322 322 323 327 329 331 331 330
314 311 318 320 316 317 316 316 316 316 316 316 321 336 343 343 342 342 340 341 340 337 335 332 331 330 329 330 331 331 330 327 326 327 328 327 325 324 321 320 321 322 322 323 324 327 329 328 326
315 312 317 318 318 317 316 315 316 317 316 318 328 343 344 342 343 343 342 342 341 337 335 334 332 331 330 330 331 332 331 330 327 327 328 328 327 325 323 321 321 321 322 323 324 325 325 323 321
315 314 318 315 317 318 317 318 319 316 319 318 335 346 345 340 343 342 343 343 342 340 336 335 333 332 332 331 331 331 332 332 329 327 327 328 327 326 325 322 321 321 322 322 322 321 320 320 319
313 318 322 320 318 318 318 319 319 318 319 318 322 341 340 341 342 342 342 342 342 342 339 337 335 334 333 333 332 331 332 332 332 329 328 328 328 327 326 323 321 320 321 320 319 319 319 320 322
317 317 321 319 319 318 318 316 319 320 318 319 340 341 340 341 342 341 341 341 342 342 341 338 337 335 334 334 334 333 333 333 333 331 330 328 327 326 325 324 321 320 320 319 319 320 320 321 321
318 323 321 320 319 319 320 319 319 319 319 318 322 340 340 341 341 340 340 340 341 342 341 340 339 336 336 336 336 335 334 334 334 332 330 328 327 327 326 325 323 320 320 320 320 320 320 322 324
318 318 319 320 319 319 320 319 319 317 320 319 318 329 340 341 340 340 339 339 340 341 341 341 341 338 337 337 337 337 335 335 335 335 331 329 328 327 326 325 323 320 320 320 320 320 323 328 331
316 316 317 318 319 319 319 320 320 319 318 317 317 327 340 341 340 340 338 338 338 339 340 341 342 339 340 338 338 338 337 336 336 335 333 330 327 326 325 325 324 321 320 320 320 321 323 330 333
314 315 314 315 317 318 320 320 318 320 319 318 318 319 339 340 340 340 338 338 338 339 340 340 341 342 341 340 339 338 339 337 336 334 334 330 328 325 324 324 324 322 321 320 320 323 325 331 334
315 316 315 314 315 317 318 320 320 320 319 318 317 317 335 340 340 340 339 338 338 338 339 339 340 340 340 340 339 339 339 338 336 334 333 331 329 326 324 323 323 322 321 321 322 324 327 331 335
317 316 319 315 313 315 319 322 320 319 319 318 316 317 334 341 340 340 340 339 338 338 338 338 338 338 339 340 339 339 339 339 337 336 333 332 329 328 325 324 323 323 326 326 322 324 330 334 336
319 321 319 318 312 315 319 321 320 318 318 319 317 316 333 341 341 340 340 340 338 338 338 338 338 338 339 339 339 338 340 340 338 337 334 333 330 329 327 326 326 328 331 332 329 323 329 335 336
316 320 319 318 313 313 318 320 319 319 318 318 316 314 320 338 342 341 340 341 339 338 338 338 339 338 339 338 337 338 340 339 338 338 336 334 331 329 328 329 331 332 332 333 331 328 330 334 335
315 316 317 317 314 314 315 318 319 319 317 316 315 315 316 334 339 341 342 340 340 338 337 338 339 339 339 338 337 339 338 338 338 338 337 335 333 329 329 330 332 334 335 334 334 332 333 334 334
310 318 318 316 316 316 315 316 317 317 318 318 317 315 314 321 338 339 341 340 341 339 338 337 338 338 338 337 337 337 337 337 338 338 338 336 334 331 329 330 331 334 335 336 334 334 332 333 334
308 311 315 317 317 317 316 317 316 316 317 318 319 318 316 316 326 340 340 340 340 340 339 338 338 337 337 336 336 335 336 336 336 337 337 336 335 334 330 329 330 332 336 338 336 335 333 334 335
307 305 311 315 319 322 317 322 318 316 316 317 318 318 319 315 316 331 341 340 340 341 340 339 339 338 337 336 335 334 334 334 334 334 335 335 335 334 332 330 331 331 333 337 339 336 335 335 336
307 305 305 310 316 316 319 322 321 316 316 316 317 318 318 318 316 316 331 341 340 340 341 340 339 339 338 337 335 334 333 333 333 334 334 335 335 334 334 332 331 333 334 334 339 340 335 335 335
309 310 308 309 315 317 318 322 320 319 317 317 316 318 318 318 315 315 316 332 340 341 340 342 340 340 339 337 337 336 335 334 335 336 336 336 335 335 335 334 333 334 336 337 336 340 338 335 335
308 312 307 309 314 315 313 324 322 317 317 316 317 317 317 317 315 315 313 315 326 336 340 341 341 340 340 339 338 339 337 337 337 337 337 338 337 338 338 337 336 336 338 338 337 337 339 336 334
309 310 310 302 308 313 312 319 323 318 316 316 317 317 317 317 315 315 314 314 315 321 333 341 342 341 341 340 340 339 340 340 340 339 339 339 338 338 338 339 338 338 339 339 339 337 338 337 336
308 311 310 310 308 312 318 320 317 318 317 316 315 316 317 316 315 317 316 314 315 318 323 333 342 342 341 341 341 341 340 341 341 341 340 340 339 339 339 340 340 339 340 339 339 338 338 337 337
308 308 313 314 315 308 312 315 321 319 318 317 316 316 315 317 316 313 314 314 315 317 322 327 337 342 342 342 342 342 341 341 341 341 340 340 340 339 339 340 340 340 340 340 339 338 337 337 337
307 309 309 312 317 310 310 309 323 324 321 317 316 316 315 313 313 313 313 312 314 315 317 326 334 339 341 342 343 342 342 341 341 341 340 340 339 339 339 339 339 340 340 338 338 337 337 336 335
306 308 307 308 307 308 319 317 317 322 322 318 317 316 315 313 314 315 316 314 313 314 315 319 331 337 340 341 343 343 343 342 341 340 340 339 339 339 339 338 338 338 339 337 337 336 335 334 334
Wind_Speed
6 6 2 4 3 5 4 7 2 2 3 4 7 6 7 0 6 6 0 26 49 48 43 40 40 39 39 38 39 39 37 35 33 31 29 28 27 25 24 22 22 22 22 22 23 23 23 21 18
8 6 3 2 4 1 6 5 9 8 3 9 5 4 3 9 1 5 14 24 47 52 45 41 41 40 39 38 38 36 36 34 32 30 29 28 27 25 23 22 22 23 23 23 23 23 21 18 17
8 2 3 3 4 6 5 6 4 4 8 4 4 3 6 4 2 14 6 35 46 51 46 43 42 39 39 38 36 35 34 33 32 31 29 27 26 24 23 23 23 23 23 22 22 21 19 17 15
5 4 4 3 9 6 7 1 3 4 6 4 3 6 2 1 3 14 26 38 49 51 47 43 43 40 39 37 36 35 33 32 31 30 28 27 25 24 22 22 23 23 22 22 21 19 17 15 13
3 3 1 3 8 6 7 5 6 7 4 5 2 6 3 3 4 20 37 41 48 48 47 44 42 41 38 37 36 34 33 31 30 29 27 26 24 23 23 22 22 22 21 21 19 17 15 13 11
2 3 1 8 15 3 7 7 2 3 5 9 4 3 2 2 14 23 35 38 44 48 45 43 40 39 38 36 35 33 32 30 29 28 26 25 24 23 22 22 21 21 20 19 17 15 13 11 10
5 4 5 4 5 3 5 7 9 8 6 6 3 4 1 5 12 21 30 36 41 45 44 41 39 38 37 35 33 32 30 29 27 26 25 23 23 22 21 20 19 19 19 18 16 14 12 10 9
4 4 4 6 14 10 4 5 2 6 5 5 2 6 5 5 23 23 27 32 38 41 44 43 40 38 36 35 32 31 29 27 26 25 23 22 21 20 20 19 18 17 16 15 14 13 12 10 10
4 2 12 11 7 3 1 2 3 4 2 4 4 3 2 29 29 25 24 23 25 31 40 42 41 39 37 35 32 30 28 26 24 23 23 22 21 20 19 18 17 16 15 13 13 12 11 9 9
5 5 12 2 15 4 9 5 4 5 6 5 4 6 16 26 28 26 27 27 29 31 37 43 40 41 38 36 34 32 30 28 26 25 24 23 22 20 19 18 17 16 15 14 13 11 10 10 9
5 21 10 9 7 6 9 7 2 3 8 7 5 0 8 14 20 19 23 33 40 37 34 36 35 42 40 38 36 34 32 30 28 26 25 24 22 21 20 19 18 17 16 15 14 12 11 11 11
9 17 7 9 11 5 6 3 8 8 18 6 11 5 11 14 16 20 23 28 33 35 34 32 34 42 41 39 38 37 35 33 31 29 27 26 25 23 22 20 20 18 17 16 14 13 13 12 11
15 16 11 8 10 9 11 24 17 16 19 7 9 7 13 17 16 17 19 23 27 29 32 36 40 40 38 40 39 36 35 33 32 31 30 28 27 26 23 21 20 19 18 17 15 14 13 12 11
6 7 13 11 18 11 14 14 6 23 16 11 10 13 13 18 18 16 18 25 31 31 35 37 38 39 38 39 39 34 29 32 34 34 33 30 28 26 25 23 21 19 18 16 14 13 13 12 10
5 16 14 17 5 7 9 21 22 32 11 10 9 10 11 19 21 22 28 34 41 40 36 38 38 36 36 34 33 32 31 32 37 37 35 32 30 27 25 24 22 20 18 16 15 14 13 12 11
5 5 15 27 15 7 8 24 31 18 15 16 11 9 10 15 21 29 29 27 28 33 39 40 35 34 35 33 33 32 32 35 40 38 36 34 31 29 26 25 23 21 20 18 17 16 15 13 12
8 15 20 27 9 5 15 21 36 13 9 15 12 12 10 12 17 24 29 29 31 38 39 39 38 36 36 31 30 30 32 38 41 39 38 36 34 31 29 27 24 22 20 19 20 19 17 16 14
12 18 16 24 4 11 9 24 34 10 7 11 9 10 10 13 19 25 29 32 31 33 35 38 36 35 33 30 27 27 31 38 41 41 40 39 37 35 32 29 26 23 22 21 20 21 20 16 14
16 19 21 30 7 9 19 24 29 20 6 9 9 9 12 12 18 29 29 33 31 31 32 37 38 38 37 33 33 31 34 36 41 42 42 41 40 38 36 32 29 27 26 25 23 22 21 20 16
20 23 28 32 13 17 16 19 27 23 18 14 11 9 11 8 14 16 27 29 34 36 37 37 40 40 44 39 37 28 32 35 39 41 43 43 42 41 39 37 35 33 31 29 27 27 23 21 19
19 22 27 31 13 19 22 30 22 19 19 20 20 18 12 17 17 17 18 29 32 36 37 40 41 43 45 38 32 24 25 20 30 37 41 46 45 44 42 41 39 38 35 35 33 31 29 23 22
15 20 22 25 6 12 12 19 20 22 22 16 18 20 22 16 17 17 18 21 31 36 40 40 41 41 40 39 35 38 37 31 38 37 37 41 46 47 45 44 42 41 40 38 37 35 33 28 24
13 9 19 21 16 16 18 13 18 15 25 22 21 22 21 20 18 17 19 26 35 37 37 41 41 40 39 44 40 39 35 35 28 28 33 39 45 49 48 47 45 44 43 43 40 38 37 36 31
10 10 13 13 11 16 21 21 25 18 26 20 25 24 19 17 16 16 20 29 31 36 36 37 40 43 43 44 44 42 41 33 30 32 33 37 40 43 46 48 47 46 46 45 45 39 40 40 39
10 6 4 5 9 11 11 17 25 20 28 25 19 22 24 15 15 15 12 16 25 30 34 35 38 39 44 46 45 45 44 39 39 38 36 32 35 37 45 50 49 49 48 47 45 45 43 43 42
10 8 5 6 8 17 16 11 23 26 19 27 24 20 17 22 14 19 18 17 24 30 33 35 38 38 41 45 48 49 45 40 41 38 37 38 39 44 40 47 45 48 46 48 47 46 45 44 43
3 6 15 11 19 11 6 9 24 21 26 30 17 11 17 16 14 17 18 16 22 28 32 36 36 40 43 49 49 47 44 43 42 42 43 42 41 37 41 46 49 47 47 47 47 45 47 46 45
5 9 6 7 6 9 10 11 11 10 23 28 34 28 16 17 15 10 11 13 25 31 34 35 41 42 47 48 47 47 47 48 48 40 40 42 46 41 41 45 48 47 47 47 47 42 43 45 45
5 4 4 6 6 4 7 15 6 10 16 27 31 29 25 10 6 4 6 5 17 23 24 30 33 37 39 42 43 42 43 45 43 40 43 47 42 43 45 45 44 46 46 42 43 39 41 43 42
3 3 3 3 6 5 8 6 9 11 15 16 9 9 8 5 6 6 6 6 2 11 19 26 31 33 38 40 38 42 42 41 39 42 44 42 44 47 48 42 42 41 44 41 43 41 41 40 42
Wind_Direction
173 161 136 40 49 62 264 255 221 220 274 196 141 174 212 198 169 207 290 155 163 166 168 164 162 156 152 148 145 145 146 150 150 150 149 149 148 145 141 140 135 130 126 124 123 120 118 113 104
159 145 71 76 105 158 259 237 228 204 274 303 260 192 159 250 232 100 132 170 166 164 167 165 162 159 153 151 148 147 150 152 152 151 150 149 147 145 143 139 135 132 130 128 126 125 120 114 106
156 107 96 140 169 202 227 219 242 183 276 256 304 169 163 229 138 162 167 165 167 164 168 166 163 162 155 153 150 150 151 152 151 151 150 149 148 146 145 141 138 135 135 134 131 129 123 117 107
156 23 32 128 234 253 224 116 75 6 320 155 303 304 300 325 205 180 160 164 164 166 169 167 165 164 159 156 154 154 153 153 152 152 153 152 151 149 146 144 142 141 141 139 137 134 128 122 113
94 67 174 241 247 244 247 249 307 310 278 268 352 267 245 43 119 158 161 164 165 167 170 168 168 166 163 160 158 157 156 155 154 155 156 156 153 151 149 146 146 145 145 144 143 140 136 128 123
71 98 141 231 244 211 260 227 246 218 241 289 282 232 228 119 132 154 158 159 168 167 170 169 171 169 167 165 163 161 159 158 158 158 159 158 155 153 151 149 148 148 148 149 150 148 142 136 130
145 120 223 251 263 263 253 234 237 252 246 277 199 213 251 145 152 153 154 162 168 171 171 172 174 172 172 170 169 166 164 162 161 161 161 160 158 155 154 152 150 150 150 151 152 150 146 142 137
141 136 219 218 252 266 224 222 261 185 268 302 177 217 221 161 149 156 156 157 167 172 173 175 176 176 175 174 174 172 170 168 166 164 164 163 161 159 157 156 154 153 154 152 152 149 146 143 137
133 220 240 224 212 224 53 131 340 306 244 337 267 286 136 141 149 141 141 149 158 170 176 178 178 179 179 178 178 177 175 173 171 169 168 168 168 165 164 161 159 159 158 157 154 151 148 140 131
173 213 235 191 226 240 270 302 0 334 325 297 313 52 125 143 150 158 162 167 172 173 179 181 179 181 182 182 180 181 178 178 178 177 176 175 175 172 170 168 166 165 163 162 160 159 153 144 137
217 239 246 262 249 258 262 275 224 264 283 234 238 159 154 165 171 180 176 177 178 175 175 181 179 184 185 185 183 183 184 183 184 184 183 181 179 178 178 175 174 173 173 171 169 165 155 147 143
260 252 233 263 265 280 262 214 254 207 253 295 291 240 170 193 194 188 179 177 175 176 178 180 181 186 188 188 187 187 188 188 188 190 189 186 184 185 185 186 182 180 179 179 175 170 163 156 151
245 257 259 252 258 256 268 254 260 262 255 267 276 268 188 197 209 226 184 172 170 178 180 183 185 184 186 191 189 190 191 191 193 194 194 194 192 190 190 191 191 189 187 185 180 178 176 172 166
311 307 271 257 256 254 262 273 215 253 259 240 230 246 206 202 201 195 196 174 178 182 185 184 186 188 186 190 191 189 189 192 197 198 198 199 198 197 196 196 197 198 196 193 190 185 185 181 178
298 292 285 257 203 239 224 272 240 253 247 244 239 245 220 209 194 198 203 187 184 188 183 185 185 185 188 190 190 190 192 194 200 203 200 202 203 203 203 202 202 201 201 200 198 197 193 191 187
283 256 262 255 219 209 158 262 256 242 237 239 225 238 238 209 202 203 202 210 191 181 185 185 184 189 189 190 189 191 195 198 204 206 203 204 206 207 207 209 208 206 207 207 206 202 200 202 205
226 256 251 271 210 193 185 249 263 230 198 227 219 227 220 217 213 205 202 203 196 189 185 187 186 188 190 191 190 193 196 203 208 208 206 206 208 209 210 213 212 210 211 212 211 207 207 210 217
244 244 267 267 278 197 226 237 257 260 236 225 212 221 223 211 217 207 200 199 200 195 191 189 188 187 190 190 190 194 199 207 210 211 210 210 210 211 212 214 213 212 216 215 211 208 207 215 228
268 266 260 268 242 261 224 235 248 246 190 234 234 231 222 214 219 215 203 194 194 195 191 191 187 190 186 188 189 192 198 202 209 214 215 214 213 213 213 215 216 216 218 219 215 212 212 217 223
274 259 258 271 253 277 275 255 252 257 241 233 224 233 232 228 229 217 207 193 190 192 195 194 193 190 192 192 194 195 197 206 209 212 216 217 216 217 216 218 218 219 221 223 223 220 218 221 216
254 260 256 261 290 273 249 263 263 261 248 238 232 232 224 223 225 221 206 201 192 193 195 195 196 195 196 195 190 195 195 207 206 213 215 218 218 219 220 220 223 222 222 225 225 225 222 213 204
263 246 263 271 290 255 223 264 248 254 253 233 238 231 229 221 228 219 210 201 201 198 198 197 197 197 195 192 190 192 190 200 209 207 208 214 219 220 221 223 224 228 226 226 227 227 225 221 200
248 245 250 261 262 280 255 263 256 249 245 235 236 234 227 221 217 216 212 206 203 202 198 197 197 196 194 193 196 195 201 208 207 205 206 209 217 222 222 223 225 227 229 228 228 226 225 219 212
290 289 259 257 247 246 253 223 249 226 242 235 236 235 231 225 207 214 211 210 211 206 200 196 194 197 195 195 197 198 205 202 198 199 203 205 211 217 221 223 224 226 228 228 227 228 226 223 221
251 274 268 220 213 253 233 219 237 209 226 242 239 236 234 219 204 205 196 210 215 209 202 197 195 197 196 197 199 203 206 201 202 200 202 201 205 211 217 220 218 221 225 227 228 227 228 226 224
250 222 216 214 222 246 227 239 247 226 251 234 241 237 231 231 189 203 198 200 209 211 204 199 197 198 196 200 203 205 205 205 207 205 204 204 207 213 212 217 216 218 221 224 228 228 229 229 229
323 210 238 245 261 279 268 263 258 229 227 236 238 238 230 231 211 203 206 196 203 208 207 200 198 201 198 202 204 207 206 205 209 209 207 210 212 214 213 217 217 218 219 224 225 224 227 228 230
242 291 285 200 204 236 237 271 256 303 238 230 230 234 233 230 225 199 200 193 201 208 209 201 201 200 202 203 204 207 206 208 210 207 206 210 216 213 215 215 218 216 219 220 223 219 225 227 229
351 343 287 277 246 221 241 241 359 350 312 232 232 229 232 230 246 260 224 204 201 208 208 208 205 204 204 205 206 207 210 210 211 208 211 212 210 213 217 216 214 213 216 215 217 214 217 225 225
261 242 291 313 307 278 259 231 35 23 14 9 35 21 24 62 52 25 10 353 242 226 216 212 209 205 208 207 205 207 209 209 208 209 214 214 212 214 216 211 213 211 215 215 217 214 216 215 221